20° challenge de l'entité sonégienne - 2015


Challenge Soignies 2015

Naast - Jogging de Saint-Joseph - 2015

Dénomination   Naast - Jogging de Saint-Joseph - 2015   10 kms
Date   samedi 09 mai 2015   15 h 00
Adresse  Ecole Saint-Joseph
 7062 Naast
   
Contact

 Ivan Thienpont

  

   067/340.696
Courses  10 kms
 5 kms
 
 
Inscriptions    
Parcours      

        Palmares de la course :

Course

Catégorie

Vainqueur

10 kms Espoirs SOENEN François COUSTRY Quentin
10 kms Seniors STILITE Yoann FRANCOIS Benoît SCARSET Stéphane
10 kms Vétérans 1 DUPONT Eddy CATOUL Emmanuel DOCLOT Frédéric
10 kms Vétérans 2 DEREUME Pascal GULLOTTA Antonino MALBRECQ Bernard
10 kms Vétérans 3 DEJONG Daniel PIRET Paul ROSITANO Franco
10 kms Vétérans 4 ERAERTS Willy
10 kms Dames DEMARET Alison BALKANOVA VIOLETTA PROVOOST Anne_Lise
10 kms Aînées 1 WHETZEL Michelle LAMBRET Christelle VANASSCHE Marie
10 kms Aînées 2 BAKRIM Fatima GAUTHIER Cécile KOOB Marie-Cécile
10 kms Aînées 3 PARISIS Marie-Christine SCHOUPPE Anita
5 kms Messieurs FOURMANOIR Michaël STILITE Mikaël FOURMANOIR Jean-Marie
5 kms Dames DEWAELE Aline CUVELIER Léonie HUYSMAN Madelyne
Course : 10 kms
Document PDF de la course
Pla. Pl.Cat Dossard Nom                       Catégorie     Temps     Course   Vitesse Min/Km
_____________________________________________________________________________________________
1 1 341 DUPONT Eddy Vétérans 1 00:38:37 10 kms 16.624 3:36
2 1 322 STILITE Yoann Seniors 00:38:52 10 kms 16.518 3:37
3 2 257 FRANCOIS Benoît Seniors 00:40:33 10 kms 15.832 3:47
4 3 253 SCARSET Stéphane Seniors 00:40:40 10 kms 15.786 3:48
5 2 219 CATOUL Emmanuel Vétérans 1 00:41:08 10 kms 15.607 3:50
6 4 340 MULPAS Cédric Seniors 00:41:20 10 kms 15.532 3:51
7 5 215 VALET Maxime Seniors 00:41:47 10 kms 15.364 3:54
8 1 222 DEJONG Daniel Vétérans 3 00:42:18 10 kms 15.177 3:57
9 1 302 DEREUME Pascal Vétérans 2 00:42:25 10 kms 15.135 3:57
10 2 234 GULLOTTA Antonino Vétérans 2 00:43:27 10 kms 14.775 4:03
11 6 223 DARCK Jonathan Seniors 00:43:29 10 kms 14.764 4:03
12 7 325 CASTEELE Emmanuel Seniors 00:43:32 10 kms 14.747 4:04
13 3 252 DOCLOT Frédéric Vétérans 1 00:43:35 10 kms 14.730 4:04
14 4 211 SMEETS Luc Vétérans 1 00:44:18 10 kms 14.492 4:08
15 1 212 SOENEN François Espoirs 00:44:40 10 kms 14.373 4:10
16 8 249 TILTE Benoît Seniors 00:44:58 10 kms 14.277 4:12
17 9 230 THIRY Florent Seniors 00:45:17 10 kms 14.177 4:13
18 10 216 VANDERLINDEN Frédéric Seniors 00:45:41 10 kms 14.053 4:16
19 5 243 DI CLEMENTE Patrizio Vétérans 1 00:45:46 10 kms 14.027 4:16
20 11 210 ROOSENS Frans Seniors 00:46:18 10 kms 13.866 4:19
21 2 299 PIRET Paul Vétérans 3 00:46:22 10 kms 13.846 4:20
22 12 338 GREUSE Dimitri Seniors 00:46:29 10 kms 13.811 4:20
23 13 206 HERPOEL Nicolas Seniors 00:46:34 10 kms 13.786 4:21
24 14 295 DESSILLY Nicolas Seniors 00:46:45 10 kms 13.732 4:22
25 6 334 PECCENINI Stéphane Vétérans 1 00:46:48 10 kms 13.717 4:22
26 15 231 VILLERS Vincent Seniors 00:47:15 10 kms 13.587 4:24
27 7 324 RICOUR Hervé Vétérans 1 00:47:26 10 kms 13.534 4:25
28 3 237 MALBRECQ Bernard Vétérans 2 00:47:30 10 kms 13.515 4:26
29 8 321 STILITE Frank Vétérans 1 00:47:39 10 kms 13.473 4:27
30 16 228 DESCAMPS François Seniors 00:47:44 10 kms 13.449 4:27
31 17 308 NEIRYNCK Yannick Seniors 00:48:00 10 kms 13.375 4:29
32 9 202 COPPEZ François Vétérans 1 00:48:21 10 kms 13.278 4:31
33 18 323 EL MAIMOUNI Saïd Seniors 00:48:28 10 kms 13.246 4:31
34 19 248 MABILLE Olivier Seniors 00:48:32 10 kms 13.228 4:32
35 20 330 BARE Quentin Seniors 00:48:36 10 kms 13.209 4:32
36 21 264 VRANCK Laurent Seniors 00:48:40 10 kms 13.191 4:32
37 10 351 ROLAND Benoît Vétérans 1 00:48:45 10 kms 13.169 4:33
38 2 331 COUSTRY Quentin Espoirs 00:48:47 10 kms 13.160 4:33
39 11 251 DURANT Luc Vétérans 1 00:48:50 10 kms 13.146 4:33
40 12 327 HAMELRYCKX Vincent Vétérans 1 00:48:59 10 kms 13.106 4:34
41 13 298 CASTIAU Laurent Vétérans 1 00:49:28 10 kms 12.978 4:37
42 3 359 ROSITANO Franco Vétérans 3 00:49:39 10 kms 12.930 4:38
43 14 256 KENDA Damien Vétérans 1 00:49:54 10 kms 12.865 4:39
44 22 337 DELATTE Sylvain Seniors 00:49:58 10 kms 12.848 4:40
45 23 204 DUPONT Nicolas Seniors 00:50:01 10 kms 12.835 4:40
46 1 254 PARISIS Marie-Christine Aînées 3 00:50:05 10 kms 12.818 4:40 47 24 320 DRUART Yves Seniors 00:50:14 10 kms 12.780 4:41 48 15 304 BUTTOL Xavier Vétérans 1 00:50:24 10 kms 12.738 4:42 49 16 245 ABRAHAM Michel Vétérans 1 00:50:26 10 kms 12.729 4:42 50 17 221 HOST Vincent Vétérans 1 00:50:33 10 kms 12.700 4:43 51 18 242 DRUART Stéphane Vétérans 1 00:51:06 10 kms 12.563 4:46 52 4 239 VANASSCHE Laurent Vétérans 2 00:51:19 10 kms 12.510 4:47 53 5 339 MULPAS Fabrice Vétérans 2 00:51:37 10 kms 12.437 4:49 54 25 203 DE SMET Arnaud Seniors 00:51:44 10 kms 12.409 4:50 55 6 229 FONTESSE Michaël Vétérans 2 00:52:09 10 kms 12.310 4:52 56 19 315 LIEGOIS Olivier Vétérans 1 00:52:11 10 kms 12.302 4:52 57 20 326 LEPOUTRE Stéphane Vétérans 1 00:52:31 10 kms 12.224 4:54 58 26 352 DEVOS Maxime Seniors 00:52:51 10 kms 12.147 4:56 59 21 335 DARDENNE Dominique Vétérans 1 00:53:00 10 kms 12.113 4:57 60 27 316 VANDENBUSSCHE François Seniors 00:53:06 10 kms 12.090 4:57 61 7 220 BERDOUX Jacques Vétérans 2 00:53:18 10 kms 12.045 4:58 62 22 317 VAN DEN BERG Frédéric Vétérans 1 00:53:20 10 kms 12.037 4:59 63 1 218 ERAERTS Willy Vétérans 4 00:53:22 10 kms 12.029 4:59 64 4 233 MARSILLE Thierry Vétérans 3 00:53:26 10 kms 12.014 4:59 65 1 260 BAKRIM Fatima Aînées 2 00:53:28 10 kms 12.007 4:59 66 23 263 SPEMANS Christophe Vétérans 1 00:53:30 10 kms 12.000 5:00 67 28 213 SOLBREUX Laurent Seniors 00:53:35 10 kms 11.981 5:00 68 8 333 BUYL Léopold Vétérans 2 00:53:38 10 kms 11.970 5:00 69 24 200 BOQUET Frédéric Vétérans 1 00:53:51 10 kms 11.922 5:01 70 9 362 LEMAIRE Vincent Vétérans 2 00:53:56 10 kms 11.903 5:02 71 29 224 BERTRAND Dominique Seniors 00:54:23 10 kms 11.805 5:04 72 30 300 LECLERCQ Lloyd Seniors 00:54:29 10 kms 11.783 5:05 73 31 350 BARRET Jean-Charles Seniors 00:54:32 10 kms 11.772 5:05 74 25 232 GODAERT Pol Vétérans 1 00:54:57 10 kms 11.683 5:08 75 1 360 WHETZEL Michelle Aînées 1 00:55:02 10 kms 11.665 5:08 76 26 312 LANCELIN Fabrice Vétérans 1 00:55:06 10 kms 11.651 5:08 77 32 205 DUQUESNE Stéphane Seniors 00:55:11 10 kms 11.633 5:09 78 2 345 LAMBRET Christelle Aînées 1 00:55:41 10 kms 11.529 5:12 79 33 344 LEFEBVRE Pascal Seniors 00:55:43 10 kms 11.522 5:12 80 34 363 DE SAINT MARTIN Alain Seniors 00:55:59 10 kms 11.467 5:13 81 2 318 GAUTHIER Cécile Aînées 2 00:56:04 10 kms 11.450 5:14 82 3 240 VANASSCHE Marie Aînées 1 00:56:05 10 kms 11.447 5:14 83 10 255 RONDEAU Philippe Vétérans 2 00:56:07 10 kms 11.440 5:14 84 4 303 COUSSEMENT Valérie Aînées 1 00:56:09 10 kms 11.433 5:14 85 5 238 VILLANI Michel Vétérans 3 00:56:38 10 kms 11.336 5:17 86 35 36 NEUFNET Jérôme Seniors 00:56:49 10 kms 11.299 5:18 87 36 244 DE HENAU Fabian Seniors 00:56:51 10 kms 11.292 5:18 88 37 349 ROMBOUTS Eric Seniors 00:56:56 10 kms 11.276 5:19 89 27 346 LANDRAIN Renaud Vétérans 1 00:57:14 10 kms 11.217 5:20 90 5 247 LEE Li Aînées 1 00:57:32 10 kms 11.158 5:22 91 38 246 LENVAIN Jean François Seniors 00:57:35 10 kms 11.149 5:22 92 1 329 DEMARET Alison Dames 00:57:46 10 kms 11.113 5:23 93 2 361 BALKANOVA VIOLETTA Dames 00:58:08 10 kms 11.043 5:25 94 3 357 KOOB Marie-Cécile Aînées 2 00:58:19 10 kms 11.008 5:27 95 4 236 DEHOUST Marianne Aînées 2 00:58:41 10 kms 10.940 5:29 96 28 347 COLLIN Emmanuel Vétérans 1 01:00:15 10 kms 10.655 5:37 97 5 301 TERRASSE Jocelyne Aînées 2 01:00:22 10 kms 10.635 5:38 98 6 208 QUERTON Emilie Aînées 1 01:00:26 10 kms 10.623 5:38 99 11 314 DUVEAU Philippe Vétérans 2 01:01:00 10 kms 10.524 5:42 100 7 217 VAN HECKE Catherine Aînées 1 01:01:37 10 kms 10.419 5:45 101 3 356 PROVOOST Anne_Lise Dames 01:01:46 10 kms 10.393 5:46 102 39 38 LEROY Benjamin Seniors 01:02:18 10 kms 10.304 5:49 103 6 226 LAENENS Francis Vétérans 3 01:02:58 10 kms 10.195 5:53 104 6 309 SIRAUX Valérie Aînées 2 01:03:04 10 kms 10.179 5:53 105 29 310 MARLIER Johan Vétérans 1 01:03:06 10 kms 10.174 5:53 106 8 355 DUBYK Jenny Aînées 1 01:03:40 10 kms 10.083 5:57 107 4 358 LECLERCQ Gaëlle Dames 01:03:51 10 kms 10.054 5:58 108 12 319 GOSSET Didier Vétérans 2 01:04:20 10 kms 9.979 6:00 109 5 201 CODDENS Fabienne Dames 01:04:24 10 kms 9.968 6:01 110 6 209 ROMBOUTS Julie Dames 01:04:36 10 kms 9.938 6:02 111 40 332 KWETTE Alain Seniors 01:05:38 10 kms 9.781 6:08 112 7 262 ROLAND Coralie Dames 01:05:51 10 kms 9.749 6:09 113 7 250 TOPART André Vétérans 3 01:05:53 10 kms 9.744 6:09 114 8 328 VANBOQUESTAELS Marine Dames 01:07:00 10 kms 9.582 6:15 115 8 305 DEROUX Claude Vétérans 3 01:07:04 10 kms 9.572 6:16 116 9 261 ROLAND Amélie Dames 01:09:06 10 kms 9.290 6:27 117 2 227 SCHOUPPE Anita Aînées 3 01:09:15 10 kms 9.270 6:28 118 30 342 SWIDERSKI Marek Vétérans 1 01:10:06 10 kms 9.158 6:33 119 31 336 MALREE Christophe Vétérans 1 01:10:59 10 kms 9.044 6:38 120 32 235 DERGS Damien Vétérans 1 01:11:24 10 kms 8.991 6:40 121 7 306 BECQUET Laurence Aînées 2 01:12:03 10 kms 8.910 6:44
Course : 5 kms
Document PDF de la course
Pla. Pl.Cat Dossard Nom                       Catégorie     Temps     Course   Vitesse Min/Km
_____________________________________________________________________________________________
1 1 50 FOURMANOIR Michaël Messieurs 00:18:59 5 kms 15.803 3:47
2 2 48 STILITE Mikaël Messieurs 00:19:04 5 kms 15.734 3:48
3 3 51 FOURMANOIR Jean-Marie Messieurs 00:20:19 5 kms 14.766 4:03
4 4 33 VANBELLAIENGH Julien Messieurs 00:20:35 5 kms 14.574 4:07
5 5 45 BRUSTEN Charles Messieurs 00:21:37 5 kms 13.878 4:19
6 6 49 MENUGE Marc Messieurs 00:21:49 5 kms 13.750 4:21
7 7 11 DUVEILLEZ Benjamin Messieurs 00:21:57 5 kms 13.667 4:23
8 8 22 VANSNICK Gilles Messieurs 00:22:34 5 kms 13.293 4:30
9 9 63 URBAIN Pascal Messieurs 00:23:18 5 kms 12.875 4:39
10 10 28 CHARLIER Cédric Messieurs 00:24:42 5 kms 12.145 4:56
11 1 58 DEWAELE Aline Dames 00:24:43 5 kms 12.137 4:56 12 11 10 DUQUESNE Loann Messieurs 00:25:19 5 kms 11.849 5:03 13 12 29 HANOT Michel Messieurs 00:25:21 5 kms 11.834 5:04 14 13 24 SOLAGNA Didier Messieurs 00:25:42 5 kms 11.673 5:08 15 14 54 DEFER Jean-Claude Messieurs 00:25:51 5 kms 11.605 5:10 16 15 57 DEFER Mathis Messieurs 00:25:52 5 kms 11.597 5:10 17 16 9 DUPONT Cyril Messieurs 00:26:02 5 kms 11.523 5:12 18 17 307 SIRAUX Louis Messieurs 00:26:33 5 kms 11.299 5:18 19 18 16 HERPOEL Thibault Messieurs 00:26:38 5 kms 11.264 5:19 20 19 62 ROOSENS Benoît Messieurs 00:26:56 5 kms 11.138 5:23 21 20 8 DUPONT Martin Messieurs 00:27:03 5 kms 11.090 5:24 22 2 40 CUVELIER Léonie Dames 00:28:19 5 kms 10.594 5:39 23 3 39 HUYSMAN Madelyne Dames 00:28:33 5 kms 10.507 5:42 24 4 69 MEERTS Fanny Dames 00:28:42 5 kms 10.452 5:44 25 21 67 ANCIAUX Mathieu Messieurs 00:29:11 5 kms 10.279 5:50 26 22 30 LEFEBVRE Paulin Messieurs 00:29:12 5 kms 10.273 5:50 27 23 25 BAEYENS Philippe Messieurs 00:29:16 5 kms 10.250 5:51 28 5 65 DEGREVE Natacha Dames 00:29:50 5 kms 10.055 5:58 29 24 26 VEKEMANS David Messieurs 00:29:54 5 kms 10.033 5:58 30 25 23 LECLERCQ Antoine Messieurs 00:30:10 5 kms 9.944 6:02 31 26 13 FIEVET Florent Messieurs 00:30:12 5 kms 9.933 6:02 32 27 46 DUQUESNE Jean-Pierre Messieurs 00:30:15 5 kms 9.917 6:03 33 6 66 ROSSAY Judith Dames 00:30:18 5 kms 9.900 6:03 34 7 59 SAVIDERSKI Laura Dames 00:30:50 5 kms 9.729 6:10 35 8 2 BASTIEN Laurence Dames 00:31:17 5 kms 9.589 6:15 36 9 68 CLAUS Noémie Dames 00:31:18 5 kms 9.584 6:15 37 10 20 SEVENS Isabelle Dames 00:31:23 5 kms 9.559 6:16 38 11 6 DESAGRE Sabine Dames 00:31:26 5 kms 9.544 6:17 39 28 44 SIROUX Justin Messieurs 00:32:37 5 kms 9.197 6:31 40 29 1 THIENPONT Martin Messieurs 00:32:38 5 kms 9.193 6:31 41 12 60 LODATO ROSANNA Dames 00:33:05 5 kms 9.068 6:37 42 13 41 ROUGE Nathalie Dames 00:33:30 5 kms 8.955 6:42 43 14 17 LAFOT Auriane Dames 00:33:43 5 kms 8.897 6:44 44 15 3 CABELA Christine Dames 00:33:46 5 kms 8.884 6:45 45 16 61 ROMBOUTS Marie Dames 00:33:58 5 kms 8.832 6:47 46 17 52 DUQUESNE Christelle Dames 00:34:36 5 kms 8.670 6:55 47 18 32 SURIANO Pasqualina Dames 00:34:47 5 kms 8.624 6:57 48 30 47 ROLAND Philippe Messieurs 00:35:48 5 kms 8.379 7:09 49 19 64 MARTIN Virginie Dames 00:36:24 5 kms 8.241 7:16 50 20 42 CARLIER Pauline Dames 00:37:27 5 kms 8.010 7:29 51 21 27 DEMAY Murielle Dames 00:38:19 5 kms 7.829 7:39 52 22 53 MALREE Célia Dames 00:40:21 5 kms 7.434 8:04 53 23 7 DUPON Isabelle Dames 00:43:53 5 kms 6.836 8:46


Challenge Soignies 2015